Location: Hylvaty SDH
(49.9612°N, 16.4057°E)
Time: 23:44:04
(UTC+02:00)

Vanguard 3 - All Passes

Search period start: 11 August 2020 00:00
Search period end: 21 August 2020 00:00
Orbit: 509 x 3262 km, 33.3° (Epoch: 11 August)

Date Brightness Start Highest point End Pass type
(mag) Time Alt. Az. Time Alt. Az. Time Alt. Az.
11 Aug - 03:58:26 10° S 04:10:15 20° SE 04:20:25 10° ESE visible
11 Aug - 06:08:12 10° SW 06:23:37 34° SSE 06:34:41 10° ESE daylight
11 Aug - 08:22:39 10° WSW 08:36:42 36° S 08:45:44 10° SE daylight
11 Aug - 10:39:12 10° WSW 10:48:14 23° SSW 10:54:27 10° SSE daylight
12 Aug - 02:48:06 10° SSE 02:55:11 13° SE 03:01:53 10° ESE visible
12 Aug - 04:53:09 10° SSW 05:08:12 29° SSE 05:20:08 10° ESE visible
12 Aug - 07:05:59 10° SW 07:21:46 38° S 07:32:25 10° ESE daylight
12 Aug - 09:21:47 10° WSW 09:34:19 32° SSW 09:42:25 10° SE daylight
12 Aug - 11:40:16 10° WSW 11:44:50 13° SW 11:48:35 10° SSW daylight
13 Aug - 03:39:28 10° S 03:52:49 23° SSE 04:04:30 10° ESE visible
13 Aug - 05:49:56 10° SW 06:06:23 37° SSE 06:18:31 10° ESE daylight
13 Aug - 08:04:39 10° WSW 08:19:45 38° S 08:29:38 10° SE daylight
13 Aug - 10:21:33 10° WSW 10:31:26 23° SSW 10:38:16 10° SSE daylight
14 Aug - 02:28:02 10° SSE 02:37:39 16° SE 02:46:50 10° ESE visible
14 Aug - 04:34:47 10° SSW 04:50:47 33° SSE 05:03:53 10° ESE visible
14 Aug - 06:47:54 10° WSW 07:04:36 41° S 07:16:13 10° ESE daylight
14 Aug - 09:03:55 10° WSW 09:17:23 33° SSW 09:26:16 10° SE daylight
14 Aug - 11:22:59 10° WSW 11:27:59 13° SW 11:32:06 10° SSW daylight
15 Aug - 03:20:55 10° SSW 03:35:15 26° SSE 03:48:15 10° E visible
15 Aug - 05:31:50 10° SW 05:49:01 40° S 06:02:11 10° ESE daylight
15 Aug - 07:46:41 10° WSW 08:02:40 40° SSW 08:13:24 10° SE daylight
15 Aug - 10:03:52 10° W 10:14:29 24° SW 10:21:58 10° SSE daylight
16 Aug - 02:08:54 10° S 02:20:01 19° SE 02:30:57 10° ESE visible
16 Aug - 04:16:40 10° SW 04:33:15 35° SSE 04:47:26 10° ESE visible
16 Aug - 06:29:57 10° WSW 06:47:19 43° S 06:59:54 10° ESE daylight
16 Aug - 08:46:03 10° W 09:00:19 33° SSW 09:09:58 10° SSE daylight
16 Aug - 11:05:44 10° WSW 11:11:00 13° SW 11:15:24 10° SSW daylight
17 Aug - 01:02:50 10° SE 01:05:17 10° SE 01:07:46 10° ESE visible
17 Aug - 03:02:41 10° SSW 03:17:36 29° SSE 03:31:44 10° E visible
17 Aug - 05:13:54 10° SW 05:31:33 42° S 05:45:43 10° ESE visible
17 Aug - 07:28:47 10° WSW 07:45:26 40° SSW 07:57:04 10° SE daylight
17 Aug - 09:46:10 10° W 09:57:25 24° SW 10:05:30 10° S daylight
18 Aug - 01:50:21 10° S 02:02:20 21° SE 02:14:35 10° E visible
18 Aug - 03:58:47 10° SW 04:15:38 38° SSE 04:30:48 10° ESE visible
18 Aug - 06:12:06 10° WSW 06:29:55 44° S 06:43:26 10° ESE daylight
18 Aug - 08:28:13 10° W 08:43:07 33° SSW 08:53:32 10° SSE daylight
18 Aug - 10:48:34 10° WSW 10:53:54 13° SW 10:58:25 10° SSW daylight
19 Aug - 00:41:30 10° SSE 00:47:37 12° SE 00:53:59 10° ESE visible
19 Aug - 02:44:47 10° SSW 02:59:54 31° SSE 03:14:59 10° E visible
19 Aug - 04:56:09 10° SW 05:13:59 44° S 05:29:05 10° ESE visible
19 Aug - 07:10:58 10° WSW 07:28:04 41° SSW 07:40:35 10° SE daylight
19 Aug - 09:28:31 10° W 09:40:12 23° SW 09:48:51 10° S daylight
20 Aug - 01:32:14 10° S 01:44:36 23° SE 01:57:52 10° E visible
20 Aug - 03:41:07 10° SW 03:57:57 40° SSE 04:13:59 10° ESE visible
20 Aug - 05:54:24 10° WSW 06:12:24 45° S 06:26:49 10° ESE daylight
20 Aug - 08:10:27 10° W 08:25:46 33° SSW 08:36:57 10° SSE daylight
20 Aug - 10:31:35 10° WSW 10:36:39 12° SW 10:41:05 10° SSW daylight
